Location: Sabalos
(43.2860°N, 0.1414°E)
Time: 20:56:21
(UTC+00:00)

Cosmos 2333 Rocket - Pass Details

Date: 05 July 2020
Orbit: 837 x 864 km, 70.8° (Epoch: 14 August)

Event Time Altitude Azimuth Distance (km) Brightness Sun altitude
Rises 22:21:54 0° 225° (SW) 3,390 5.1 -20.0°
Reaches altitude 10° 22:24:28 10° 232° (SW) 2,463 4.5 -20.2°
Maximum altitude 22:29:48 42° 302° (WNW) 1,207 3.4 -20.6°
Drops below altitude 10° 22:35:13 10° 13° (NNE) 2,495 5.4 -20.9°
Sets 22:37:50 0° 21° (NNE) 3,439 6.1 -21.1°
